Time,TemperatureF,DewpointF,PressureIn,WindDirection,WindDirectionDegrees,WindSpeedMPH,WindSpeedGustMPH,Humidity,HourlyPrecipIn,Conditions,Clouds,dailyrainin,SoftwareType,DateUTC
2013-03-27 00:00:00,55.3,44.5,29.93,SE,146,0.0,0.0,67,0.00,,CLR,0.00,VWS V14.01,2013-03-27 07:00:00,
2013-03-27 00:04:00,55.2,44.5,29.93,SE,146,0.0,0.0,67,0.00,,CLR,0.00,VWS V14.01,2013-03-27 07:04:00,
2013-03-27 00:09:00,55.1,44.3,29.93,SE,146,0.0,0.0,67,0.00,,CLR,0.00,VWS V14.01,2013-03-27 07:09:00,
2013-03-27 00:14:00,55.0,44.3,29.94,SE,146,0.0,0.0,67,0.00,,CLR,0.00,VWS V14.01,2013-03-27 07:14:00,
2013-03-27 00:19:00,54.9,44.2,29.93,SE,146,0.0,0.0,67,0.00,,CLR,0.00,VWS V14.01,2013-03-27 07:19:00,
2013-03-27 00:24:00,54.9,44.5,29.93,SE,146,0.0,0.0,68,0.00,,CLR,0.00,VWS V14.01,2013-03-27 07:24:00,
2013-03-27 00:29:00,54.9,44.5,29.93,SE,146,3.0,3.0,68,0.00,,CLR,0.00,VWS V14.01,2013-03-27 07:29:00,
2013-03-27 00:34:00,54.8,44.5,29.94,SE,146,1.0,1.0,68,0.00,,CLR,0.00,VWS V14.01,2013-03-27 07:34:00,
2013-03-27 00:39:00,54.8,44.1,29.93,SE,146,1.0,1.0,67,0.00,,CLR,0.00,VWS V14.01,2013-03-27 07:39:00,
2013-03-27 00:44:00,54.6,44.3,29.94,SE,146,2.0,2.0,68,0.00,,CLR,0.00,VWS V14.01,2013-03-27 07:44:00,
2013-03-27 00:49:00,54.5,44.2,29.93,SE,146,2.0,2.0,68,0.00,,CLR,0.00,VWS V14.01,2013-03-27 07:49:00,
2013-03-27 00:54:00,54.7,44.4,29.94,SE,146,2.0,2.0,68,0.00,,CLR,0.00,VWS V14.01,2013-03-27 07:54:00,
2013-03-27 00:59:00,55.0,44.3,29.93,SE,139,5.0,5.0,67,0.00,,CLR,0.00,VWS V14.01,2013-03-27 07:59:00,
2013-03-27 01:00:00,55.0,44.3,29.93,SE,139,5.0,5.0,67,0.00,,CLR,0.00,VWS V14.01,2013-03-27 08:00:00,
2013-03-27 01:04:00,55.4,44.2,29.93,SE,127,2.0,2.0,66,0.00,,CLR,0.00,VWS V14.01,2013-03-27 08:04:00,
2013-03-27 01:09:00,55.6,44.0,29.94,SE,127,7.0,7.0,65,0.00,,CLR,0.00,VWS V14.01,2013-03-27 08:09:00,
2013-03-27 01:15:00,55.6,44.0,29.93,ESE,118,3.0,3.0,65,0.00,,CLR,0.00,VWS V14.01,2013-03-27 08:15:00,
2013-03-27 01:20:00,55.6,44.0,29.93,ESE,122,4.0,4.0,65,0.00,,CLR,0.00,VWS V14.01,2013-03-27 08:20:00,
2013-03-27 01:25:00,55.5,43.9,29.93,ESE,121,4.0,4.0,65,0.00,,CLR,0.00,VWS V14.01,2013-03-27 08:25:00,
2013-03-27 01:30:00,55.4,43.8,29.93,ESE,121,5.0,5.0,65,0.00,,CLR,0.00,VWS V14.01,2013-03-27 08:30:00,
2013-03-27 01:35:00,55.3,43.8,29.93,ESE,121,2.0,2.0,65,0.00,,CLR,0.00,VWS V14.01,2013-03-27 08:35:00,
2013-03-27 01:40:00,55.1,43.6,29.93,ESE,122,3.0,3.0,65,0.00,,CLR,0.00,VWS V14.01,2013-03-27 08:40:00,
2013-03-27 01:45:00,55.0,43.9,29.94,ESE,122,3.0,3.0,66,0.00,,CLR,0.00,VWS V14.01,2013-03-27 08:45:00,
2013-03-27 01:50:00,54.8,43.7,29.94,ESE,122,1.0,1.0,66,0.00,,CLR,0.01,VWS V14.01,2013-03-27 08:50:00,
2013-03-27 01:55:00,54.7,44.0,29.94,ESE,122,1.0,1.0,67,0.00,,CLR,0.00,VWS V14.01,2013-03-27 08:55:00,
2013-03-27 02:00:00,54.6,43.9,29.93,ESE,122,1.0,1.0,67,0.00,,CLR,0.00,VWS V14.01,2013-03-27 09:00:00,
2013-03-27 02:11:00,55.3,44.2,29.94,ESE,112,3.0,9.0,66,0.00,,CLR,0.00,VWS V14.01,2013-03-27 09:11:00,
2013-03-27 02:16:00,54.1,44.2,29.93,ESE,122,2.0,2.0,69,0.00,,CLR,0.00,VWS V14.01,2013-03-27 09:16:00,
2013-03-27 02:21:00,53.9,44.0,29.93,ESE,122,1.0,1.0,69,0.00,,CLR,0.00,VWS V14.01,2013-03-27 09:21:00,
2013-03-27 02:27:00,53.7,44.2,29.93,ESE,122,2.0,2.0,70,0.00,,CLR,0.00,VWS V14.01,2013-03-27 09:27:00,
2013-03-27 02:32:00,53.6,44.1,29.93,ESE,121,2.0,2.0,70,0.00,,CLR,0.00,VWS V14.01,2013-03-27 09:32:00,
2013-03-27 02:37:00,53.5,44.0,29.93,ESE,120,2.0,2.0,70,0.00,,CLR,0.00,VWS V14.01,2013-03-27 09:37:00,
2013-03-27 02:42:00,53.5,44.3,29.93,ESE,120,2.0,2.0,71,0.00,,CLR,0.00,VWS V14.01,2013-03-27 09:42:00,
2013-03-27 02:47:00,53.5,44.3,29.93,ESE,117,3.0,3.0,71,0.00,,CLR,0.00,VWS V14.01,2013-03-27 09:47:00,
2013-03-27 02:52:00,53.5,44.3,29.93,ESE,117,6.0,6.0,71,0.00,,CLR,0.00,VWS V14.01,2013-03-27 09:52:00,
2013-03-27 02:57:00,53.5,44.3,29.93,ESE,117,3.0,3.0,71,0.00,,CLR,0.00,VWS V14.01,2013-03-27 09:57:00,
2013-03-27 03:00:00,50.4,41.7,29.94,ESE,112,8.0,19.0,72,0.00,,CLR,0.00,VWS V14.01,2013-03-27 10:00:00,
2013-03-27 03:02:00,53.4,44.2,29.93,ESE,120,4.0,4.0,71,0.00,,CLR,0.00,VWS V14.01,2013-03-27 10:02:00,
2013-03-27 03:07:00,53.5,44.0,29.93,SE,134,3.0,3.0,70,0.00,,CLR,0.00,VWS V14.01,2013-03-27 10:07:00,
2013-03-27 03:12:00,53.4,43.9,29.92,SE,136,3.0,3.0,70,0.00,,CLR,0.00,VWS V14.01,2013-03-27 10:12:00,
2013-03-27 03:17:00,53.4,43.9,29.92,SE,142,2.0,2.0,70,0.00,,CLR,0.00,VWS V14.01,2013-03-27 10:17:00,
2013-03-27 03:22:00,53.3,43.4,29.92,SE,135,3.0,3.0,69,0.00,,CLR,0.00,VWS V14.01,2013-03-27 10:22:00,
2013-03-27 03:28:00,53.2,43.3,29.92,SE,132,2.0,2.0,69,0.00,,CLR,0.00,VWS V14.01,2013-03-27 10:28:00,
2013-03-27 03:33:00,53.0,43.5,29.92,SE,127,4.0,4.0,70,0.00,,CLR,0.00,VWS V14.01,2013-03-27 10:33:00,
2013-03-27 03:38:00,52.9,43.8,29.92,ESE,118,3.0,3.0,71,0.00,,CLR,0.00,VWS V14.01,2013-03-27 10:38:00,
2013-03-27 03:43:00,52.8,43.7,29.92,ESE,117,4.0,4.0,71,0.00,,CLR,0.00,VWS V14.01,2013-03-27 10:43:00,
2013-03-27 03:48:00,52.7,43.9,29.92,ESE,117,3.0,3.0,72,0.00,,CLR,0.00,VWS V14.01,2013-03-27 10:48:00,
2013-03-27 03:53:00,52.5,43.8,29.92,ESE,117,2.0,2.0,72,0.00,,CLR,0.00,VWS V14.01,2013-03-27 10:53:00,
2013-03-27 03:58:00,52.5,43.8,29.92,ESE,114,3.0,3.0,72,0.00,,CLR,0.00,VWS V14.01,2013-03-27 10:58:00,
2013-03-27 04:00:00,49.0,41.8,29.94,ESE,112,9.0,19.0,76,0.00,,CLR,0.00,VWS V14.01,2013-03-27 11:00:00,
2013-03-27 04:03:00,52.4,43.7,29.92,ESE,114,4.0,4.0,72,0.00,,FEW075,0.00,VWS V14.01,2013-03-27 11:03:00,
2013-03-27 04:08:00,52.3,43.5,29.92,ESE,110,2.0,2.0,72,0.00,,FEW075,0.00,VWS V14.01,2013-03-27 11:08:00,
2013-03-27 04:13:00,52.3,43.2,29.92,ESE,115,5.0,5.0,71,0.00,,FEW075,0.00,VWS V14.01,2013-03-27 11:13:00,
2013-03-27 04:18:00,52.2,43.1,29.92,ESE,115,3.0,3.0,71,0.00,,FEW075,0.00,VWS V14.01,2013-03-27 11:18:00,
2013-03-27 04:23:00,52.3,43.2,29.92,ESE,118,5.0,5.0,71,0.00,,FEW075,0.00,VWS V14.01,2013-03-27 11:23:00,
2013-03-27 04:28:00,52.2,43.1,29.92,ESE,117,4.0,4.0,71,0.00,,FEW075,0.00,VWS V14.01,2013-03-27 11:28:00,
2013-03-27 04:33:00,52.0,42.9,29.92,ESE,119,2.0,2.0,71,0.00,,FEW075,0.00,VWS V14.01,2013-03-27 11:33:00,
2013-03-27 04:38:00,51.8,43.1,29.92,ESE,120,5.0,5.0,72,0.00,,FEW075,0.00,VWS V14.01,2013-03-27 11:38:00,
2013-03-27 04:44:00,51.7,43.0,29.92,ESE,115,3.0,3.0,72,0.00,,FEW075,0.00,VWS V14.01,2013-03-27 11:44:00,
2013-03-27 04:49:00,51.8,43.1,29.92,ESE,113,4.0,4.0,72,0.00,,FEW075,0.00,VWS V14.01,2013-03-27 11:49:00,
2013-03-27 04:54:00,51.9,43.2,29.92,ESE,114,5.0,5.0,72,0.00,,FEW075,0.00,VWS V14.01,2013-03-27 11:54:00,
2013-03-27 04:59:00,51.9,43.5,29.92,ESE,106,3.0,3.0,73,0.00,,FEW075,0.00,VWS V14.01,2013-03-27 11:59:00,
2013-03-27 05:00:00,48.1,41.6,29.94,ESE,112,5.0,13.0,78,0.00,,CLR,0.00,VWS V14.01,2013-03-27 12:00:00,
2013-03-27 05:04:00,52.0,43.3,29.92,ESE,114,3.0,3.0,72,0.00,,SCT075,0.00,VWS V14.01,2013-03-27 12:04:00,
2013-03-27 05:09:00,52.0,43.3,29.92,ESE,106,3.0,3.0,72,0.00,,SCT075,0.00,VWS V14.01,2013-03-27 12:09:00,
2013-03-27 05:14:00,52.2,43.1,29.92,ESE,115,3.0,3.0,71,0.00,,SCT075,0.00,VWS V14.01,2013-03-27 12:14:00,
2013-03-27 05:19:00,52.2,43.1,29.92,ESE,121,3.0,3.0,71,0.00,,SCT075,0.00,VWS V14.01,2013-03-27 12:19:00,
2013-03-27 05:24:00,52.0,42.9,29.92,ESE,121,3.0,3.0,71,0.00,,SCT075,0.00,VWS V14.01,2013-03-27 12:24:00,
2013-03-27 05:29:00,51.9,42.8,29.92,ESE,121,4.0,4.0,71,0.00,,SCT075,0.00,VWS V14.01,2013-03-27 12:29:00,
2013-03-27 05:34:00,51.8,43.1,29.92,ESE,120,4.0,4.0,72,0.00,,SCT075,0.00,VWS V14.01,2013-03-27 12:34:00,
2013-03-27 05:39:00,51.8,43.1,29.92,ESE,115,4.0,4.0,72,0.00,,SCT075,0.00,VWS V14.01,2013-03-27 12:39:00,
2013-03-27 05:44:00,51.7,43.0,29.92,ESE,115,4.0,4.0,72,0.00,,SCT075,0.00,VWS V14.01,2013-03-27 12:44:00,
2013-03-27 05:49:00,51.5,42.8,29.92,ESE,115,6.0,6.0,72,0.00,,SCT075,0.00,VWS V14.01,2013-03-27 12:49:00,
2013-03-27 05:54:00,51.5,42.8,29.92,ESE,115,1.0,1.0,72,0.00,,SCT075,0.00,VWS V14.01,2013-03-27 12:54:00,
2013-03-27 05:59:00,51.3,43.0,29.93,ESE,116,2.0,2.0,73,0.00,,SCT075,0.00,VWS V14.01,2013-03-27 12:59:00,
2013-03-27 06:00:00,47.5,41.7,29.95,ESE,112,4.0,10.0,80,0.00,,CLR,0.00,VWS V14.01,2013-03-27 13:00:00,
2013-03-27 06:04:00,51.1,42.8,29.93,ESE,120,4.0,4.0,73,0.00,,SCT075,0.00,VWS V14.01,2013-03-27 13:04:00,
2013-03-27 06:10:00,50.8,42.8,29.93,SE,141,4.0,4.0,74,0.00,,SCT075,0.00,VWS V14.01,2013-03-27 13:10:00,
2013-03-27 06:15:00,50.4,42.8,29.93,SE,141,2.0,2.0,75,0.00,,SCT075,0.00,VWS V14.01,2013-03-27 13:15:00,
2013-03-27 06:20:00,50.2,42.6,29.93,SSE,149,3.0,3.0,75,0.00,,SCT075,0.00,VWS V14.01,2013-03-27 13:20:00,
2013-03-27 06:25:00,50.1,42.8,29.93,SSE,150,2.0,2.0,76,0.00,,SCT075,0.00,VWS V14.01,2013-03-27 13:25:00,
2013-03-27 06:30:00,50.4,42.8,29.93,SSE,152,3.0,3.0,75,0.00,,SCT075,0.00,VWS V14.01,2013-03-27 13:30:00,
2013-03-27 06:35:00,50.6,43.0,29.93,SE,145,4.0,4.0,75,0.00,,SCT075,0.00,VWS V14.01,2013-03-27 13:35:00,
2013-03-27 06:40:00,50.7,43.1,29.93,SE,134,5.0,5.0,75,0.00,,SCT075,0.00,VWS V14.01,2013-03-27 13:40:00,
2013-03-27 06:45:00,50.9,42.9,29.93,SE,145,3.0,3.0,74,0.00,,SCT075,0.00,VWS V14.01,2013-03-27 13:45:00,
2013-03-27 06:50:00,51.0,43.0,29.93,SE,127,2.0,2.0,74,0.00,,SCT075,0.00,VWS V14.01,2013-03-27 13:50:00,
2013-03-27 06:55:00,51.1,42.8,29.93,SE,142,5.0,5.0,73,0.00,,SCT075,0.00,VWS V14.01,2013-03-27 13:55:00,
2013-03-27 07:00:00,51.3,43.0,29.93,South,176,4.0,4.0,73,0.00,,SCT075,0.00,VWS V14.01,2013-03-27 14:00:00,
2013-03-27 07:05:00,51.4,42.7,29.93,South,182,5.0,5.0,72,0.00,,BKN075,0.00,VWS V14.01,2013-03-27 14:05:00,
2013-03-27 07:10:00,51.3,43.0,29.94,South,183,5.0,5.0,73,0.00,,BKN075,0.00,VWS V14.01,2013-03-27 14:10:00,
2013-03-27 07:16:00,51.0,42.7,29.94,South,172,2.0,2.0,73,0.00,,BKN075,0.00,VWS V14.01,2013-03-27 14:16:00,
2013-03-27 07:21:00,50.9,42.9,29.94,SSE,159,4.0,4.0,74,0.00,,BKN075,0.00,VWS V14.01,2013-03-27 14:21:00,
2013-03-27 07:26:00,51.2,43.2,29.94,SE,133,3.0,3.0,74,0.00,,BKN075,0.00,VWS V14.01,2013-03-27 14:26:00,
2013-03-27 07:31:00,51.2,43.2,29.95,SSE,160,5.0,5.0,74,0.00,,BKN075,0.00,VWS V14.01,2013-03-27 14:31:00,
2013-03-27 07:36:00,51.2,43.6,29.95,SE,141,3.0,3.0,75,0.00,,BKN075,0.00,VWS V14.01,2013-03-27 14:36:00,
2013-03-27 07:42:00,51.3,43.7,29.95,SE,143,5.0,5.0,75,0.00,,BKN075,0.00,VWS V14.01,2013-03-27 14:42:00,
2013-03-27 07:47:00,51.4,43.8,29.94,SE,140,2.0,2.0,75,0.00,,BKN075,0.00,VWS V14.01,2013-03-27 14:47:00,
2013-03-27 07:52:00,51.6,44.0,29.94,SE,128,4.0,4.0,75,0.00,,BKN075,0.00,VWS V14.01,2013-03-27 14:52:00,
2013-03-27 07:57:00,51.9,43.9,29.95,SE,125,6.0,6.0,74,0.00,,BKN075,0.00,VWS V14.01,2013-03-27 14:57:00,
2013-03-27 08:00:00,49.9,40.5,29.97,ESE,112,5.0,14.0,70,0.00,,CLR,0.00,VWS V14.01,2013-03-27 15:00:00,
2013-03-27 08:02:00,52.2,43.8,29.95,SE,126,5.0,5.0,73,0.00,,SCT075,0.00,VWS V14.01,2013-03-27 15:02:00,
2013-03-27 08:07:00,52.5,43.8,29.95,ESE,116,2.0,2.0,72,0.00,,SCT075,0.00,VWS V14.01,2013-03-27 15:07:00,
2013-03-27 08:12:00,52.7,43.9,29.95,ESE,111,3.0,3.0,72,0.00,,SCT075,0.00,VWS V14.01,2013-03-27 15:12:00,
2013-03-27 08:17:00,52.9,43.8,29.95,ESE,110,2.0,2.0,71,0.00,,SCT075,0.00,VWS V14.01,2013-03-27 15:17:00,
2013-03-27 08:22:00,53.1,44.0,29.95,SSE,151,5.0,5.0,71,0.00,,SCT075,0.00,VWS V14.01,2013-03-27 15:22:00,
2013-03-27 08:27:00,53.3,44.2,29.95,SE,143,4.0,4.0,71,0.00,,SCT075,0.00,VWS V14.01,2013-03-27 15:27:00,
2013-03-27 08:32:00,53.3,44.2,29.95,SSE,154,4.0,4.0,71,0.00,,SCT075,0.00,VWS V14.01,2013-03-27 15:32:00,
2013-03-27 08:38:00,53.6,44.1,29.95,SSE,149,2.0,2.0,70,0.00,,SCT075,0.00,VWS V14.01,2013-03-27 15:38:00,
2013-03-27 08:43:00,53.9,44.0,29.95,SE,139,6.0,6.0,69,0.00,,SCT075,0.00,VWS V14.01,2013-03-27 15:43:00,
2013-03-27 08:48:00,54.2,43.9,29.95,ESE,104,9.0,9.0,68,0.00,,SCT075,0.00,VWS V14.01,2013-03-27 15:48:00,
2013-03-27 08:53:00,54.4,44.1,29.95,SE,128,5.0,5.0,68,0.00,,SCT075,0.00,VWS V14.01,2013-03-27 15:53:00,
2013-03-27 08:58:00,54.7,44.0,29.95,ESE,103,5.0,5.0,67,0.00,,SCT075,0.00,VWS V14.01,2013-03-27 15:58:00,
2013-03-27 09:00:00,53.0,40.8,29.98,SE,135,7.0,13.0,63,0.00,,CLR,0.00,VWS V14.01,2013-03-27 16:00:00,
2013-03-27 09:03:00,55.2,44.0,29.95,SSE,150,7.0,7.0,66,0.00,,FEW080,0.00,VWS V14.01,2013-03-27 16:03:00,
2013-03-27 09:08:00,55.6,44.0,29.95,SSE,163,4.0,4.0,65,0.00,,FEW080,0.00,VWS V14.01,2013-03-27 16:08:00,
2013-03-27 09:13:00,56.1,44.1,29.95,ESE,113,13.0,13.0,64,0.00,,FEW080,0.00,VWS V14.01,2013-03-27 16:13:00,
2013-03-27 09:18:00,56.6,44.6,29.95,ESE,102,8.0,8.0,64,0.00,,FEW080,0.00,VWS V14.01,2013-03-27 16:18:00,
2013-03-27 09:23:00,57.1,44.2,29.95,ESE,105,2.0,2.0,62,0.00,,FEW080,0.00,VWS V14.01,2013-03-27 16:23:00,
2013-03-27 09:28:00,57.9,44.5,29.95,SE,146,7.0,7.0,61,0.00,,FEW080,0.00,VWS V14.01,2013-03-27 16:28:00,
2013-03-27 09:33:00,58.1,44.3,29.95,SSE,158,6.0,6.0,60,0.00,,FEW080,0.00,VWS V14.01,2013-03-27 16:33:00,
2013-03-27 09:39:00,58.2,44.4,29.96,South,180,5.0,5.0,60,0.00,,FEW080,0.00,VWS V14.01,2013-03-27 16:39:00,
2013-03-27 09:44:00,58.5,44.2,29.95,SSE,168,5.0,5.0,59,0.00,,FEW080,0.00,VWS V14.01,2013-03-27 16:44:00,
2013-03-27 09:49:00,58.5,44.2,29.95,ESE,119,8.0,8.0,59,0.00,,FEW080,0.00,VWS V14.01,2013-03-27 16:49:00,
2013-03-27 09:54:00,58.8,44.5,29.96,SE,137,6.0,6.0,59,0.00,,FEW080,0.00,VWS V14.01,2013-03-27 16:54:00,
2013-03-27 09:59:00,59.3,45.0,29.96,SSE,160,7.0,7.0,59,0.00,,FEW080,0.00,VWS V14.01,2013-03-27 16:59:00,
2013-03-27 10:00:00,55.8,41.3,29.99,SSE,158,6.0,15.0,58,0.00,,CLR,0.00,VWS V14.01,2013-03-27 17:00:00,
2013-03-27 10:04:00,59.3,44.5,29.96,SE,128,5.0,5.0,58,0.00,,SCT080,0.00,VWS V14.01,2013-03-27 17:04:00,
2013-03-27 10:09:00,59.3,45.0,29.96,SSW,196,7.0,7.0,59,0.00,,SCT080,0.00,VWS V14.01,2013-03-27 17:09:00,
2013-03-27 10:14:00,59.6,45.3,29.96,ESE,109,3.0,3.0,59,0.00,,SCT080,0.00,VWS V14.01,2013-03-27 17:14:00,
2013-03-27 10:19:00,59.9,45.1,29.96,SSE,161,10.0,10.0,58,0.00,,SCT080,0.00,VWS V14.01,2013-03-27 17:19:00,
2013-03-27 10:24:00,60.4,45.1,29.96,SE,132,6.0,6.0,57,0.00,,SCT080,0.00,VWS V14.01,2013-03-27 17:24:00,
2013-03-27 10:29:00,60.6,45.8,29.96,SSE,155,7.0,7.0,58,0.00,,SCT080,0.00,VWS V14.01,2013-03-27 17:29:00,
2013-03-27 10:34:00,61.3,45.5,29.96,ESE,106,11.0,11.0,56,0.00,,SCT080,0.00,VWS V14.01,2013-03-27 17:34:00,
2013-03-27 10:39:00,61.9,46.5,29.96,South,186,11.0,11.0,57,0.00,,SCT080,0.00,VWS V14.01,2013-03-27 17:39:00,
2013-03-27 10:44:00,61.7,45.9,29.96,South,171,7.0,7.0,56,0.00,,SCT080,0.00,VWS V14.01,2013-03-27 17:44:00,
2013-03-27 10:49:00,62.5,46.1,29.96,SE,127,6.0,6.0,55,0.00,,SCT080,0.00,VWS V14.01,2013-03-27 17:49:00,
2013-03-27 10:54:00,62.3,45.5,29.96,SSE,154,7.0,7.0,54,0.00,,SCT080,0.00,VWS V14.01,2013-03-27 17:54:00,
2013-03-27 10:59:00,62.6,46.2,29.96,ESE,119,6.0,6.0,55,0.00,,SCT080,0.00,VWS V14.01,2013-03-27 17:59:00,
2013-03-27 11:00:00,58.4,42.3,29.98,SSE,158,6.0,13.0,55,0.00,,CLR,0.00,VWS V14.01,2013-03-27 18:00:00,
2013-03-27 11:04:00,62.8,46.4,29.96,South,172,6.0,6.0,55,0.00,,CLR,0.00,VWS V14.01,2013-03-27 18:04:00,
2013-03-27 11:09:00,62.3,45.5,29.96,South,173,8.0,8.0,54,0.00,,CLR,0.00,VWS V14.01,2013-03-27 18:09:00,
2013-03-27 11:15:00,63.0,46.6,29.96,SSE,167,5.0,5.0,55,0.00,,CLR,0.00,VWS V14.01,2013-03-27 18:15:00,
2013-03-27 11:20:00,62.6,45.7,29.96,South,171,5.0,5.0,54,0.00,,CLR,0.00,VWS V14.01,2013-03-27 18:20:00,
2013-03-27 11:25:00,62.9,47.5,29.96,South,175,8.0,8.0,57,0.00,,CLR,0.00,VWS V14.01,2013-03-27 18:25:00,
2013-03-27 11:30:00,62.5,46.1,29.96,South,182,11.0,11.0,55,0.00,,CLR,0.00,VWS V14.01,2013-03-27 18:30:00,
2013-03-27 11:35:00,63.0,46.6,29.96,ESE,114,2.0,2.0,55,0.00,,CLR,0.00,VWS V14.01,2013-03-27 18:35:00,
2013-03-27 11:40:00,63.2,46.3,29.96,SSW,195,11.0,11.0,54,0.00,,CLR,0.00,VWS V14.01,2013-03-27 18:40:00,
2013-03-27 11:45:00,63.4,47.0,29.96,SE,141,4.0,4.0,55,0.00,,CLR,0.00,VWS V14.01,2013-03-27 18:45:00,
2013-03-27 11:50:00,64.9,47.4,29.96,ESE,117,6.0,6.0,53,0.00,,CLR,0.00,VWS V14.01,2013-03-27 18:50:00,
2013-03-27 11:55:00,65.4,47.8,29.96,South,174,5.0,5.0,53,0.00,,CLR,0.00,VWS V14.01,2013-03-27 18:55:00,
2013-03-27 12:00:00,65.2,46.6,29.96,South,174,10.0,10.0,51,0.00,,CLR,0.00,VWS V14.01,2013-03-27 19:00:00,
2013-03-27 12:05:00,64.9,47.4,29.96,SE,128,6.0,6.0,53,0.00,,FEW050,0.00,VWS V14.01,2013-03-27 19:05:00,
2013-03-27 12:10:00,65.2,47.2,29.96,South,176,6.0,6.0,52,0.00,,FEW050,0.00,VWS V14.01,2013-03-27 19:10:00,
2013-03-27 12:15:00,65.6,48.0,29.96,SSE,147,1.0,1.0,53,0.00,,FEW050,0.00,VWS V14.01,2013-03-27 19:15:00,
2013-03-27 12:20:00,65.7,47.6,29.96,SSW,194,5.0,5.0,52,0.00,,FEW050,0.00,VWS V14.01,2013-03-27 19:20:00,
2013-03-27 12:25:00,66.0,46.8,29.96,South,175,10.0,10.0,50,0.00,,FEW050,0.00,VWS V14.01,2013-03-27 19:25:00,
2013-03-27 12:30:00,65.4,47.3,29.96,SSE,151,8.0,8.0,52,0.00,,FEW050,0.00,VWS V14.01,2013-03-27 19:30:00,
2013-03-27 12:35:00,65.8,47.7,29.96,ESE,110,6.0,6.0,52,0.00,,FEW050,0.00,VWS V14.01,2013-03-27 19:35:00,
2013-03-27 12:40:00,67.1,48.4,29.96,South,183,10.0,10.0,51,0.00,,FEW050,0.00,VWS V14.01,2013-03-27 19:40:00,
2013-03-27 12:45:00,66.7,48.0,29.95,South,184,7.0,7.0,51,0.00,,FEW050,0.00,VWS V14.01,2013-03-27 19:45:00,
2013-03-27 12:50:00,67.3,48.0,29.96,South,172,7.0,7.0,50,0.00,,FEW050,0.00,VWS V14.01,2013-03-27 19:50:00,
2013-03-27 12:55:00,67.1,47.3,29.95,SE,143,4.0,4.0,49,0.00,,FEW050,0.00,VWS V14.01,2013-03-27 19:55:00,
2013-03-27 13:00:00,67.6,47.8,29.95,South,184,6.0,6.0,49,0.00,,SCT070,0.00,VWS V14.01,2013-03-27 20:00:00,
2013-03-27 13:05:00,67.9,48.1,29.95,South,184,8.0,8.0,49,0.00,,SCT070,0.00,VWS V14.01,2013-03-27 20:05:00,
2013-03-27 13:10:00,68.3,48.4,29.95,SSE,147,7.0,7.0,49,0.00,,SCT070,0.00,VWS V14.01,2013-03-27 20:10:00,
2013-03-27 13:15:00,69.1,47.5,29.95,ESE,116,12.0,12.0,46,0.00,,SCT070,0.00,VWS V14.01,2013-03-27 20:15:00,
2013-03-27 13:20:00,69.5,47.2,29.95,SSE,167,6.0,6.0,45,0.00,,SCT070,0.00,VWS V14.01,2013-03-27 20:20:00,
2013-03-27 13:26:00,69.0,47.4,29.95,ESE,123,7.0,7.0,46,0.00,,SCT070,0.00,VWS V14.01,2013-03-27 20:26:00,
2013-03-27 13:31:00,70.4,48.7,29.95,ESE,122,5.0,5.0,46,0.00,,SCT070,0.00,VWS V14.01,2013-03-27 20:31:00,
2013-03-27 13:36:00,70.6,48.2,29.94,South,190,6.0,6.0,45,0.00,,SCT070,0.00,VWS V14.01,2013-03-27 20:36:00,
2013-03-27 13:41:00,69.8,47.5,29.94,ESE,110,6.0,6.0,45,0.00,,SCT070,0.00,VWS V14.01,2013-03-27 20:41:00,
2013-03-27 13:46:00,70.1,47.8,29.94,SSE,168,8.0,8.0,45,0.00,,SCT070,0.00,VWS V14.01,2013-03-27 20:46:00,
2013-03-27 13:51:00,69.5,47.8,29.94,SE,134,4.0,4.0,46,0.00,,SCT070,0.00,VWS V14.01,2013-03-27 20:51:00,
2013-03-27 13:56:00,70.0,47.7,29.94,SSE,160,4.0,4.0,45,0.00,,SCT070,0.00,VWS V14.01,2013-03-27 20:56:00,
2013-03-27 14:00:00,67.0,43.8,29.95,South,180,4.0,11.0,43,0.00,,CLR,0.00,VWS V14.01,2013-03-27 21:00:00,
2013-03-27 14:01:00,70.3,47.4,29.94,ESE,112,4.0,4.0,44,0.00,,FEW034,0.00,VWS V14.01,2013-03-27 21:01:00,
2013-03-27 14:06:00,70.0,47.7,29.94,SSW,193,7.0,7.0,45,0.00,,FEW034,0.00,VWS V14.01,2013-03-27 21:06:00,
2013-03-27 14:11:00,70.0,47.7,29.94,SE,146,6.0,6.0,45,0.00,,FEW034,0.00,VWS V14.01,2013-03-27 21:11:00,
2013-03-27 14:17:00,70.2,47.9,29.94,South,174,10.0,10.0,45,0.00,,FEW034,0.00,VWS V14.01,2013-03-27 21:17:00,
2013-03-27 14:22:00,70.7,47.7,29.94,SSW,213,4.0,4.0,44,0.00,,FEW034,0.00,VWS V14.01,2013-03-27 21:22:00,
2013-03-27 14:27:00,70.2,47.9,29.94,SSW,192,6.0,6.0,45,0.00,,FEW034,0.00,VWS V14.01,2013-03-27 21:27:00,
2013-03-27 14:32:00,70.2,47.9,29.94,SSW,206,8.0,8.0,45,0.00,,FEW034,0.00,VWS V14.01,2013-03-27 21:32:00,
2013-03-27 14:37:00,69.8,48.1,29.93,SSW,196,11.0,11.0,46,0.00,,FEW034,0.00,VWS V14.01,2013-03-27 21:37:00,
2013-03-27 14:42:00,70.3,48.0,29.93,SW,218,9.0,9.0,45,0.00,,FEW034,0.00,VWS V14.01,2013-03-27 21:42:00,
2013-03-27 14:47:00,69.8,47.5,29.93,SW,215,5.0,5.0,45,0.00,,FEW034,0.00,VWS V14.01,2013-03-27 21:47:00,
2013-03-27 14:52:00,69.1,48.0,29.93,South,186,8.0,8.0,47,0.00,,FEW034,0.00,VWS V14.01,2013-03-27 21:52:00,
2013-03-27 14:57:00,69.9,48.2,29.93,SSE,167,4.0,4.0,46,0.00,,FEW034,0.00,VWS V14.01,2013-03-27 21:57:00,
2013-03-27 15:00:00,69.2,40.4,29.93,South,180,4.0,10.0,35,0.00,,CLR,0.00,VWS V14.01,2013-03-27 22:00:00,
2013-03-27 15:02:00,70.3,47.4,29.93,SSW,193,7.0,7.0,44,0.00,,FEW036,0.00,VWS V14.01,2013-03-27 22:02:00,
2013-03-27 15:07:00,70.2,47.9,29.93,South,177,7.0,7.0,45,0.00,,FEW036,0.00,VWS V14.01,2013-03-27 22:07:00,
2013-03-27 15:12:00,70.1,47.2,29.93,SW,220,8.0,8.0,44,0.00,,FEW036,0.00,VWS V14.01,2013-03-27 22:12:00,
2013-03-27 15:17:00,69.7,46.8,29.93,South,184,7.0,7.0,44,0.00,,FEW036,0.00,VWS V14.01,2013-03-27 22:17:00,
2013-03-27 15:22:00,69.8,46.9,29.93,SSW,196,8.0,8.0,44,0.00,,FEW036,0.00,VWS V14.01,2013-03-27 22:22:00,
2013-03-27 15:27:00,69.8,47.5,29.93,South,191,12.0,12.0,45,0.00,,FEW036,0.00,VWS V14.01,2013-03-27 22:27:00,
2013-03-27 15:32:00,69.5,47.2,29.93,South,190,8.0,8.0,45,0.00,,FEW036,0.00,VWS V14.01,2013-03-27 22:32:00,
2013-03-27 15:37:00,69.8,46.9,29.93,SSW,203,9.0,9.0,44,0.00,,FEW036,0.00,VWS V14.01,2013-03-27 22:37:00,
2013-03-27 15:42:00,70.1,47.2,29.93,South,191,9.0,9.0,44,0.00,,FEW036,0.00,VWS V14.01,2013-03-27 22:42:00,
2013-03-27 15:47:00,69.8,47.5,29.93,South,186,12.0,12.0,45,0.00,,FEW036,0.00,VWS V14.01,2013-03-27 22:47:00,
2013-03-27 15:53:00,69.9,48.2,29.93,SE,145,3.0,3.0,46,0.00,,FEW036,0.00,VWS V14.01,2013-03-27 22:53:00,
2013-03-27 15:58:00,69.8,48.7,29.93,South,188,16.0,16.0,47,0.00,,FEW036,0.00,VWS V14.01,2013-03-27 22:58:00,
2013-03-27 16:00:00,71.0,37.2,29.91,South,180,3.0,8.0,29,0.00,,CLR,0.00,VWS V14.01,2013-03-27 23:00:00,
2013-03-27 16:03:00,69.4,48.3,29.93,SW,218,11.0,11.0,47,0.00,,FEW040,0.00,VWS V14.01,2013-03-27 23:03:00,
2013-03-27 16:08:00,69.3,48.8,29.93,South,187,11.0,11.0,48,0.00,,FEW040,0.00,VWS V14.01,2013-03-27 23:08:00,
2013-03-27 16:13:00,68.9,48.4,29.93,South,187,10.0,10.0,48,0.00,,FEW040,0.00,VWS V14.01,2013-03-27 23:13:00,
2013-03-27 16:18:00,68.6,48.7,29.93,SSW,199,15.0,15.0,49,0.00,,FEW040,0.00,VWS V14.01,2013-03-27 23:18:00,
2013-03-27 16:23:00,68.6,48.7,29.93,SW,220,7.0,7.0,49,0.00,,FEW040,0.00,VWS V14.01,2013-03-27 23:23:00,
2013-03-27 16:28:00,69.1,48.6,29.93,South,185,15.0,15.0,48,0.00,,FEW040,0.00,VWS V14.01,2013-03-27 23:28:00,
2013-03-27 16:33:00,69.0,48.5,29.94,SSW,201,13.0,13.0,48,0.00,,FEW040,0.00,VWS V14.01,2013-03-27 23:33:00,
2013-03-27 16:38:00,68.9,47.9,29.94,SSW,196,10.0,10.0,47,0.00,,FEW040,0.00,VWS V14.01,2013-03-27 23:38:00,
2013-03-27 16:43:00,68.8,48.9,29.94,South,172,6.0,6.0,49,0.00,,FEW040,0.00,VWS V14.01,2013-03-27 23:43:00,
2013-03-27 16:48:00,68.7,48.8,29.94,SSW,209,13.0,13.0,49,0.00,,FEW040,0.00,VWS V14.01,2013-03-27 23:48:00,
2013-03-27 16:53:00,68.3,48.4,29.94,SSW,208,11.0,11.0,49,0.00,,FEW040,0.00,VWS V14.01,2013-03-27 23:53:00,
2013-03-27 16:58:00,68.3,48.4,29.93,SSW,206,10.0,10.0,49,0.00,,FEW040,0.00,VWS V14.01,2013-03-27 23:58:00,
2013-03-27 17:00:00,71.4,39.2,29.90,South,180,3.0,8.0,31,0.00,,CLR,0.00,VWS V14.01,2013-03-28 00:00:00,
2013-03-27 17:03:00,68.0,47.6,29.94,South,191,11.0,11.0,48,0.00,,CLR,0.00,VWS V14.01,2013-03-28 00:03:00,
2013-03-27 17:08:00,67.8,47.4,29.94,SSW,198,15.0,15.0,48,0.00,,CLR,0.00,VWS V14.01,2013-03-28 00:08:00,
2013-03-27 17:13:00,67.6,48.3,29.93,SSW,196,12.0,12.0,50,0.00,,CLR,0.00,VWS V14.01,2013-03-28 00:13:00,
2013-03-27 17:18:00,67.5,47.7,29.94,SSW,195,12.0,12.0,49,0.00,,CLR,0.00,VWS V14.01,2013-03-28 00:18:00,
2013-03-27 17:24:00,67.2,48.0,29.94,SSW,200,12.0,12.0,50,0.00,,CLR,0.00,VWS V14.01,2013-03-28 00:24:00,
2013-03-27 17:29:00,67.3,48.6,29.94,South,190,5.0,5.0,51,0.00,,CLR,0.00,VWS V14.01,2013-03-28 00:29:00,
2013-03-27 17:34:00,67.3,48.0,29.94,SSW,200,11.0,11.0,50,0.00,,CLR,0.00,VWS V14.01,2013-03-28 00:34:00,
2013-03-27 17:39:00,66.8,47.6,29.94,SSW,199,13.0,13.0,50,0.00,,CLR,0.00,VWS V14.01,2013-03-28 00:39:00,
2013-03-27 17:44:00,66.7,48.0,29.94,SSE,166,7.0,7.0,51,0.00,,CLR,0.00,VWS V14.01,2013-03-28 00:44:00,
2013-03-27 17:49:00,66.7,47.5,29.94,South,186,9.0,9.0,50,0.00,,CLR,0.00,VWS V14.01,2013-03-28 00:49:00,
2013-03-27 17:54:00,66.5,47.3,29.94,South,182,10.0,10.0,50,0.00,,CLR,0.00,VWS V14.01,2013-03-28 00:54:00,
2013-03-27 17:59:00,66.3,47.1,29.94,SSW,195,12.0,12.0,50,0.00,,CLR,0.00,VWS V14.01,2013-03-28 00:59:00,
2013-03-27 18:00:00,69.4,40.6,29.90,SSW,202,2.0,6.0,35,0.00,,CLR,0.00,VWS V14.01,2013-03-28 01:00:00,
2013-03-27 18:04:00,66.3,47.1,29.94,South,184,10.0,10.0,50,0.00,,CLR,0.00,VWS V14.01,2013-03-28 01:04:00,
2013-03-27 18:09:00,66.3,47.7,29.94,South,178,13.0,13.0,51,0.00,,CLR,0.00,VWS V14.01,2013-03-28 01:09:00,
2013-03-27 18:14:00,65.9,46.2,29.94,SSW,204,9.0,9.0,49,0.00,,CLR,0.00,VWS V14.01,2013-03-28 01:14:00,
2013-03-27 18:19:00,65.8,46.7,29.95,South,169,14.0,14.0,50,0.00,,CLR,0.00,VWS V14.01,2013-03-28 01:19:00,
2013-03-27 18:24:00,65.7,46.6,29.95,South,187,5.0,5.0,50,0.00,,CLR,0.00,VWS V14.01,2013-03-28 01:24:00,
2013-03-27 18:30:00,65.7,47.1,29.94,SSW,202,5.0,5.0,51,0.00,,CLR,0.00,VWS V14.01,2013-03-28 01:30:00,
2013-03-27 18:35:00,65.5,47.4,29.95,South,178,6.0,6.0,52,0.00,,CLR,0.00,VWS V14.01,2013-03-28 01:35:00,
2013-03-27 18:40:00,65.4,47.3,29.95,South,176,4.0,4.0,52,0.00,,CLR,0.00,VWS V14.01,2013-03-28 01:40:00,
2013-03-27 18:45:00,65.2,47.7,29.95,SSE,168,6.0,6.0,53,0.00,,CLR,0.00,VWS V14.01,2013-03-28 01:45:00,
2013-03-27 18:50:00,65.2,47.7,29.95,SSE,158,3.0,3.0,53,0.00,,CLR,0.00,VWS V14.01,2013-03-28 01:50:00,
2013-03-27 18:55:00,64.9,47.4,29.96,SSE,159,4.0,4.0,53,0.00,,CLR,0.00,VWS V14.01,2013-03-28 01:55:00,
2013-03-27 19:00:00,64.6,47.6,29.95,SSE,167,5.0,5.0,54,0.00,,CLR,0.00,VWS V14.01,2013-03-28 02:00:00,
2013-03-27 19:05:00,64.3,47.8,29.96,SSE,157,7.0,7.0,55,0.00,,CLR,0.00,VWS V14.01,2013-03-28 02:05:00,
2013-03-27 19:10:00,64.2,47.7,29.96,SSE,158,4.0,4.0,55,0.00,,CLR,0.00,VWS V14.01,2013-03-28 02:10:00,
2013-03-27 19:15:00,64.0,47.5,29.96,SSE,167,3.0,3.0,55,0.00,,CLR,0.00,VWS V14.01,2013-03-28 02:15:00,
2013-03-27 19:20:00,63.5,47.5,29.96,SSW,194,5.0,5.0,56,0.00,,CLR,0.00,VWS V14.01,2013-03-28 02:20:00,
2013-03-27 19:25:00,63.1,47.6,29.96,SE,144,2.0,2.0,57,0.00,,CLR,0.00,VWS V14.01,2013-03-28 02:25:00,
2013-03-27 19:31:00,62.8,47.4,29.96,SE,146,3.0,3.0,57,0.00,,CLR,0.00,VWS V14.01,2013-03-28 02:31:00,
2013-03-27 19:36:00,62.5,47.1,29.96,SE,141,2.0,2.0,57,0.00,,CLR,0.00,VWS V14.01,2013-03-28 02:36:00,
2013-03-27 19:41:00,62.3,47.3,29.96,SSE,151,2.0,2.0,58,0.00,,CLR,0.00,VWS V14.01,2013-03-28 02:41:00,
2013-03-27 19:46:00,62.1,47.2,29.96,SSE,151,3.0,3.0,58,0.00,,CLR,0.00,VWS V14.01,2013-03-28 02:46:00,
2013-03-27 19:51:00,62.0,47.5,29.97,SSE,161,4.0,4.0,59,0.00,,CLR,0.00,VWS V14.01,2013-03-28 02:51:00,
2013-03-27 19:56:00,61.8,47.3,29.97,South,183,6.0,6.0,59,0.00,,CLR,0.00,VWS V14.01,2013-03-28 02:56:00,
2013-03-27 20:00:00,65.0,44.3,29.92,SSW,202,1.0,4.0,47,0.00,,CLR,0.00,VWS V14.01,2013-03-28 03:00:00,
2013-03-27 20:01:00,61.6,47.2,29.97,South,178,4.0,4.0,59,0.00,,CLR,0.00,VWS V14.01,2013-03-28 03:01:00,
2013-03-27 20:06:00,61.4,47.4,29.97,South,186,6.0,6.0,60,0.00,,CLR,0.00,VWS V14.01,2013-03-28 03:06:00,
2013-03-27 20:12:00,61.2,47.2,29.97,South,180,3.0,3.0,60,0.00,,CLR,0.00,VWS V14.01,2013-03-28 03:12:00,
2013-03-27 20:17:00,61.0,47.5,29.97,South,187,4.0,4.0,61,0.00,,CLR,0.00,VWS V14.01,2013-03-28 03:17:00,
2013-03-27 20:22:00,60.9,47.4,29.97,South,183,5.0,5.0,61,0.00,,CLR,0.00,VWS V14.01,2013-03-28 03:22:00,
2013-03-27 20:27:00,60.8,47.3,29.97,South,179,5.0,5.0,61,0.00,,CLR,0.00,VWS V14.01,2013-03-28 03:27:00,
2013-03-27 20:32:00,60.7,47.2,29.97,South,179,2.0,2.0,61,0.00,,CLR,0.00,VWS V14.01,2013-03-28 03:32:00,
2013-03-27 20:37:00,60.5,47.4,29.97,South,180,5.0,5.0,62,0.00,,CLR,0.00,VWS V14.01,2013-03-28 03:37:00,
2013-03-27 20:42:00,60.3,47.7,29.97,South,180,4.0,4.0,63,0.00,,CLR,0.00,VWS V14.01,2013-03-28 03:42:00,
2013-03-27 20:47:00,60.3,47.7,29.97,South,181,3.0,3.0,63,0.00,,CLR,0.00,VWS V14.01,2013-03-28 03:47:00,
2013-03-27 20:52:00,60.2,47.6,29.98,South,170,3.0,3.0,63,0.00,,CLR,0.00,VWS V14.01,2013-03-28 03:52:00,
2013-03-27 20:57:00,60.1,47.5,29.98,South,170,3.0,3.0,63,0.00,,CLR,0.00,VWS V14.01,2013-03-28 03:57:00,
2013-03-27 21:00:00,60.1,47.5,29.98,South,174,3.0,3.0,63,0.00,,CLR,0.00,VWS V14.01,2013-03-28 04:00:00,
2013-03-27 21:01:00,60.1,47.5,29.98,South,174,4.0,4.0,63,0.00,,BKN055,0.00,VWS V14.01,2013-03-28 04:01:00,
2013-03-27 21:06:00,60.0,47.8,29.98,South,174,2.0,2.0,64,0.00,,BKN055,0.00,VWS V14.01,2013-03-28 04:06:00,
2013-03-27 21:11:00,59.9,47.7,29.98,South,174,4.0,4.0,64,0.00,,BKN055,0.00,VWS V14.01,2013-03-28 04:11:00,
2013-03-27 21:16:00,59.8,48.0,29.98,South,179,4.0,4.0,65,0.00,,BKN055,0.00,VWS V14.01,2013-03-28 04:16:00,
2013-03-27 21:22:00,59.9,48.1,29.98,South,181,5.0,5.0,65,0.00,,BKN055,0.00,VWS V14.01,2013-03-28 04:22:00,
2013-03-27 21:27:00,60.0,48.2,29.98,South,181,2.0,2.0,65,0.00,,BKN055,0.00,VWS V14.01,2013-03-28 04:27:00,
2013-03-27 21:32:00,60.0,48.2,29.98,South,180,1.0,1.0,65,0.00,,BKN055,0.00,VWS V14.01,2013-03-28 04:32:00,
2013-03-27 21:37:00,60.0,47.8,29.99,South,177,2.0,2.0,64,0.00,,BKN055,0.00,VWS V14.01,2013-03-28 04:37:00,
2013-03-27 21:42:00,60.0,48.2,29.99,SSE,160,3.0,3.0,65,0.00,,BKN055,0.00,VWS V14.01,2013-03-28 04:42:00,
2013-03-27 21:47:00,60.1,48.3,29.99,SSE,159,3.0,3.0,65,0.00,,BKN055,0.00,VWS V14.01,2013-03-28 04:47:00,
2013-03-27 21:52:00,60.1,48.3,29.99,SSE,159,2.0,2.0,65,0.00,,BKN055,0.00,VWS V14.01,2013-03-28 04:52:00,
2013-03-27 21:57:00,60.2,48.0,29.99,SSE,158,2.0,2.0,64,0.00,,BKN055,0.00,VWS V14.01,2013-03-28 04:57:00,
2013-03-27 22:00:00,58.1,45.6,29.93,SSE,158,2.0,5.0,63,0.00,,CLR,0.00,VWS V14.01,2013-03-28 05:00:00,
2013-03-27 22:02:00,60.1,48.3,29.99,SSE,156,1.0,1.0,65,0.00,,CLR,0.00,VWS V14.01,2013-03-28 05:02:00,
2013-03-27 22:07:00,60.1,48.3,29.99,SSE,156,0.0,0.0,65,0.00,,CLR,0.00,VWS V14.01,2013-03-28 05:07:00,
2013-03-27 22:12:00,60.1,48.3,30.00,SSE,154,3.0,3.0,65,0.00,,CLR,0.00,VWS V14.01,2013-03-28 05:12:00,
2013-03-27 22:17:00,60.1,48.3,30.00,SSE,155,0.0,0.0,65,0.00,,CLR,0.00,VWS V14.01,2013-03-28 05:17:00,
2013-03-27 22:22:00,60.1,48.7,30.00,SSE,154,3.0,3.0,66,0.00,,CLR,0.00,VWS V14.01,2013-03-28 05:22:00,
2013-03-27 22:27:00,60.3,48.9,30.00,SSE,154,3.0,3.0,66,0.00,,CLR,0.00,VWS V14.01,2013-03-28 05:27:00,
2013-03-27 22:33:00,60.5,48.7,30.00,SSE,149,2.0,2.0,65,0.00,,CLR,0.00,VWS V14.01,2013-03-28 05:33:00,
2013-03-27 22:38:00,60.4,48.6,30.00,SSE,149,2.0,2.0,65,0.00,,CLR,0.00,VWS V14.01,2013-03-28 05:38:00,
2013-03-27 22:43:00,60.2,48.8,30.00,SSE,149,3.0,3.0,66,0.00,,CLR,0.00,VWS V14.01,2013-03-28 05:43:00,
2013-03-27 22:48:00,60.1,49.1,30.00,SSE,149,6.0,6.0,67,0.00,,CLR,0.00,VWS V14.01,2013-03-28 05:48:00,
2013-03-27 22:53:00,59.9,49.3,30.00,SE,146,4.0,4.0,68,0.00,,CLR,0.00,VWS V14.01,2013-03-28 05:53:00,
2013-03-27 22:58:00,59.7,49.1,30.00,SSE,158,4.0,4.0,68,0.00,,CLR,0.00,VWS V14.01,2013-03-28 05:58:00,
2013-03-27 23:00:00,56.3,45.1,29.93,SE,135,1.0,4.0,66,0.00,,CLR,0.00,VWS V14.01,2013-03-28 06:00:00,
2013-03-27 23:03:00,59.4,49.6,30.00,SE,146,4.0,4.0,70,0.00,,SCT050,0.00,VWS V14.01,2013-03-28 06:03:00,
2013-03-27 23:08:00,59.2,49.4,30.00,SE,146,5.0,5.0,70,0.00,,SCT050,0.00,VWS V14.01,2013-03-28 06:08:00,
2013-03-27 23:13:00,59.2,50.2,30.00,SSE,147,2.0,2.0,72,0.00,,SCT050,0.00,VWS V14.01,2013-03-28 06:13:00,
2013-03-27 23:18:00,59.1,49.7,30.00,SSE,152,5.0,5.0,71,0.00,,SCT050,0.00,VWS V14.01,2013-03-28 06:18:00,
2013-03-27 23:23:00,59.0,49.6,30.00,SE,140,2.0,2.0,71,0.00,,SCT050,0.00,VWS V14.01,2013-03-28 06:23:00,
2013-03-27 23:28:00,59.0,49.6,30.00,SE,142,5.0,5.0,71,0.00,,SCT050,0.00,VWS V14.01,2013-03-28 06:28:00,
2013-03-27 23:33:00,59.0,50.0,30.00,SE,137,2.0,2.0,72,0.00,,SCT050,0.00,VWS V14.01,2013-03-28 06:33:00,
2013-03-27 23:38:00,59.0,49.6,30.00,SE,137,2.0,2.0,71,0.00,,SCT050,0.00,VWS V14.01,2013-03-28 06:38:00,
2013-03-27 23:43:00,59.2,49.8,30.00,SE,139,3.0,3.0,71,0.00,,SCT050,0.00,VWS V14.01,2013-03-28 06:43:00,
2013-03-27 23:49:00,59.3,49.9,30.00,SE,141,3.0,3.0,71,0.00,,SCT050,0.00,VWS V14.01,2013-03-28 06:49:00,
2013-03-27 23:54:00,58.9,49.9,30.00,SSE,161,3.0,3.0,72,0.00,,SCT050,0.00,VWS V14.01,2013-03-28 06:54:00,
2013-03-27 23:59:00,58.5,49.5,30.00,SSE,161,2.0,2.0,72,0.00,,SCT050,0.00,VWS V14.01,2013-03-28 06:59:00,